Starlink 32472

operational
NORAD ID: 61846 Int'l Des: 2024-202 Owner: SPXS Country: US Constellation: starlink
LEOCIRCULAR

关于 Starlink 32472

正在加载描述...

实时位置

正在加载3D地球...

即将过境

高度历史

Altitude vs Time

uPlot chart will show altitude changes over time

两行轨道根数

1 61846U 24202B 25305.08929208 -.00005644 00000-0 -19579-3 0 9993
2 61846 42.9997 233.5497 0001490 265.1737 94.8944 15.27572284 55781
Epoch: Nov 1, 2025 • Age: 32 hours

当前状态

高度 484.8 km
速度 7.62 km/s
星下点 -11.18°S, 139.58°W
发射日期 Nov 7, 2024
运行时间 0.9 years
类型 internet

技术详情

分类 Payload
质量 730.00 kg
干质量 700.00 kg
总质量 730.00 kg
长度 0.30 m
直径 4.10 m
跨度 29.00 m
形状 Box + pan
制造商 SPXS
平台类型 Starlink V2M
阶段状态 In Orbit
所有者/国家 SPXS/US

大型星座

Loading constellations...